FW6463 Weather Reports


time (UTC)temp
C
wind
direction
speed
KPH
gust
KPH
rain 1hr
cm
rain 24hr
cm
rain mn
cm
humidity
%
barometer
mb
20260905025548 21 0.0 0.0 0.00 0.05 0.00 99 1016.2
20260905024526 21 0.0 0.0 0.00 0.08 0.00 99 1016.2
20260905023519 21 0.0 4.8 0.00 0.08 0.00 99 1016.2
20260905022524 21 162 1.6 3.2 0.00 0.10 0.00 99 1016.1
20260905021524 21 172 1.6 4.8 0.00 0.10 0.00 99 1016.1
20260905020517 21 0.0 0.0 0.00 0.10 0.00 99 1016.0
20260905015541 21 158 3.2 4.8 0.00 0.10 0.00 99 1016.0
20260905014540 22 180 1.6 3.2 0.00 0.10 0.00 99 1016.1
20260905013519 22 157 1.6 3.2 0.00 0.10 0.00 99 1016.1
20260905012518 22 0.0 0.0 0.00 0.10 0.00 99 1016.1
20260905011517 22 0.0 0.0 0.00 0.10 0.00 99 1016.2
20260905010515 22 0.0 0.0 0.00 0.10 0.00 99 1016.2
20260905005533 23 162 0.0 3.2 0.00 0.10 0.00 98 1016.2
20260905004520 23 0.0 0.0 0.00 0.10 0.00 98 1016.1
20260905003525 23 0.0 0.0 0.00 0.10 0.00 97 1016.2
20260905002529 23 0.0 0.0 0.00 0.10 0.00 96 1015.7
20260905001536 24 0.0 0.0 0.00 0.10 0.00 94 1015.7
20260905000521 24 0.0 0.0 0.00 0.10 0.00 94 1015.7
20260904235546 25 174 1.6 3.2 0.00 0.10 0.00 91 1015.9
20260904234531 26 0.0 0.0 0.00 0.10 0.00 87 1015.8
20260904233538 26 0.0 0.0 0.00 0.10 0.00 84 1015.7
20260904232523 26 130 0.0 1.6 0.00 0.10 0.00 83 1015.8
20260904231528 27 249 4.8 6.4 0.00 0.10 0.00 82 1015.9
20260904230535 27 257 4.8 8.0 0.00 0.10 0.00 82 1016.0
20260904225520 27 242 6.4 9.7 0.00 0.10 0.00 81 1015.8
20260904224525 27 250 6.4 8.0 0.00 0.10 0.00 80 1015.8
20260904223530 28 292 6.4 9.7 0.00 0.10 0.00 79 1015.9
20260904222516 28 276 4.8 9.7 0.00 0.10 0.00 77 1015.8
20260904221521 29 257 4.8 9.7 0.00 0.10 0.00 75 1015.7
20260904220526 29 259 4.8 8.0 0.00 0.10 0.00 75 1015.7
20260904215532 30 282 6.4 9.7 0.00 0.10 0.00 75 1016.0
20260904214518 29 300 6.4 9.7 0.00 0.10 0.00 75 1016.0
20260904213523 29 279 4.8 8.0 0.00 0.10 0.00 75 1016.1
20260904212549 29 292 8.0 11.3 0.00 0.10 0.00 75 1016.3
20260904211533 30 300 8.0 14.5 0.00 0.10 0.00 73 1016.4
20260904210519 31 8.0 8.0 0.00 0.10 0.00 71 1016.3
20260904210022 31 299 6.4 11.3 0.00 0.10 0.00 74 1016.2
20260904205028 31 288 6.4 9.7 0.00 0.10 0.00 74 1016.3
20260904204053 30 338 9.7 12.9 0.00 0.10 0.00 74 1016.2
20260904203019 31 285 8.0 11.3 0.00 0.10 0.00 73 1015.9
20260904202024 30 272 6.4 12.9 0.00 0.10 0.00 76 1016.0
20260904201029 30 282 8.0 14.5 0.00 0.10 0.00 76 1016.3
20260904200057 30 261 4.8 6.4 0.00 0.10 0.00 75 1016.4
20260904195021 30 273 4.8 8.0 0.00 0.10 0.00 74 1016.4
20260904194026 30 300 1.6 4.8 0.00 0.10 0.00 79 1016.5
20260904193030 30 258 4.8 6.4 0.00 0.10 0.00 77 1016.7
20260904192017 29 279 3.2 4.8 0.00 0.10 0.00 78 1016.8
20260904191023 23 297 6.4 9.7 0.00 0.10 0.00 70 1016.7
20260904190027 31 317 6.4 11.3 0.00 0.10 0.00 73 1016.8
20260904185033 31 289 6.4 11.3 0.00 0.10 0.00 72 1017.1
20260904184019 30 302 6.4 9.7 0.00 0.10 0.00 75 1017.4
20260904183025 30 275 3.2 6.4 0.00 0.10 0.00 76 1017.6
20260904182029 30 296 8.0 11.3 0.00 0.10 0.00 75 1017.8
20260904181016 30 298 6.4 9.7 0.00 0.10 0.00 75 1017.9
20260904180021 30 3.2 3.2 0.00 0.10 0.00 77 1018.1
20260904175025 30 299 8.0 9.7 0.00 0.10 0.00 76 1018.0
20260904174031 30 297 6.4 9.7 0.00 0.10 0.00 75 1018.0
20260904173018 30 294 8.0 11.3 0.00 0.10 0.00 76 1018.1
20260904172022 30 315 8.0 14.5 0.00 0.10 0.00 76 1018.1
20260904171027 30 264 4.8 6.4 0.00 0.10 0.00 78 1018.1
20260904170027 29 264 6.4 9.7 0.00 0.10 0.00 78 1018.1
20260904165019 29 230 6.4 9.7 0.00 0.10 0.00 77 1018.3
20260904164024 29 302 6.4 9.7 0.00 0.10 0.00 76 1018.3
20260904163023 29 266 4.8 8.0 0.00 0.10 0.00 76 1018.3
20260904162016 28 318 9.7 14.5 0.00 0.10 0.00 77 1018.5
20260904161021 28 299 6.4 11.3 0.00 0.10 0.00 79 1018.6
20260904160020 28 262 6.4 8.0 0.00 0.10 0.00 78 1018.6
20260904155019 27 11 4.8 6.4 0.00 0.10 0.00 79 1018.6
20260904154018 28 285 6.4 9.7 0.00 0.10 0.00 79 1018.6
20260904153016 28 249 6.4 11.3 0.00 0.10 0.00 80 1018.6
20260904152015 27 299 6.4 9.7 0.00 0.10 0.00 80 1018.8
20260904151033 27 290 4.8 8.0 0.00 0.10 0.00 81 1018.6
20260904150040 27 264 3.2 8.0 0.00 0.10 0.00 82 1018.8
20260904145044 26 260 4.8 8.0 0.00 0.10 0.00 83 1018.8
20260904144050 26 255 6.4 9.7 0.00 0.15 0.00 84 1018.8
20260904143016 26 311 6.4 8.0 0.00 0.15 0.00 84 1018.8
20260904142101 26 253 6.4 8.0 0.00 0.20 0.00 84 1018.6
20260904141026 25 344 3.2 4.8 0.00 0.20 0.00 88 1018.6
20260904140031 25 304 6.4 8.0 0.00 0.30 0.00 87 1018.6
20260904135058 25 295 6.4 11.3 0.00 0.30 0.00 90 1018.6
20260904134043 23 180 1.6 4.8 0.00 0.30 0.00 96 1018.7
20260904133048 22 0.0 0.0 0.00 0.30 0.00 99 1018.8
20260904132033 22 0.0 0.0 0.00 0.30 0.00 99 1018.6
20260904131020 22 158 0.0 1.6 0.00 0.30 0.00 99 1018.6
20260904130025 21 90 0.0 3.2 0.00 0.30 0.00 99 1018.8
20260904125029 21 203 0.0 1.6 0.00 0.30 0.00 99 1019.0
20260904124016 21 0.0 0.0 0.00 0.30 0.00 99 1019.1
20260904123021 21 0.0 0.0 0.00 0.30 0.00 99 1019.0
20260904122026 20 0.0 0.0 0.00 0.30 0.00 99 1018.6
20260904121031 20 315 0.0 3.2 0.00 0.30 0.00 99 1018.6
20260904120039 20 0.0 0.0 0.00 0.30 0.00 99 1018.8
20260904115043 20 0.0 1.6 0.00 0.30 0.00 99 1018.8
20260904114028 20 0.0 0.0 0.00 0.30 0.00 99 1018.8
20260904113053 20 196 1.6 6.4 0.00 0.30 0.00 99 1018.6
20260904112020 19 0.0 0.0 0.00 0.36 0.00 99 1018.8
20260904111024 19 0.0 0.0 0.00 0.36 0.00 99 1018.6
20260904110049 19 113 0.0 3.2 0.00 0.36 0.00 99 1018.1
20260904105017 19 0.0 1.6 0.00 0.38 0.00 99 1018.1
20260904104021 19 0.0 0.0 0.00 0.41 0.00 99 1018.1
20260904103047 19 158 1.6 4.8 0.00 0.46 0.00 99 1018.1
20260904102031 19 0.0 0.0 0.00 0.46 0.00 99 1017.9
20260904101018 20 0.0 0.0 0.00 0.46 0.00 99 1017.8
20260904100043 20 0.0 0.0 0.00 0.46 0.00 99 1017.9
20260904095027 20 0.0 0.0 0.00 0.46 0.00 99 1017.9
20260904094032 20 0.0 0.0 0.00 0.66 0.00 99 1017.9
20260904093019 20 0.0 0.0 0.00 0.89 0.00 99 1017.9
20260904092025 20 0.0 0.0 0.00 0.89 0.00 99 1017.8
20260904091029 20 0.0 0.0 0.00 0.89 0.00 99 1017.8
20260904090037 20 169 1.6 4.8 0.00 0.91 0.00 99 1017.8
20260904085042 20 203 0.0 1.6 0.00 0.91 0.00 99 1017.8
20260904084026 20 203 0.0 4.8 0.00 0.91 0.00 99 1017.8
20260904083031 20 180 0.0 3.2 0.00 0.91 0.00 99 1017.6
20260904082018 20 270 1.6 4.8 0.00 0.91 0.00 99 1017.6
20260904081023 20 226 1.6 4.8 0.00 0.91 0.00 99 1017.6
20260904080028 20 225 1.6 4.8 0.00 0.91 0.00 99 1017.6
20260904075027 20 252 0.0 3.2 0.00 0.91 0.00 99 1017.4
20260904074100 20 187 1.6 4.8 0.00 0.91 0.00 99 1017.2
20260904073024 20 196 1.6 4.8 0.00 0.91 0.00 99 1017.2
20260904072043 20 222 4.8 6.4 0.00 0.91 0.00 99 1017.2
20260904071017 20 194 3.2 6.4 0.00 0.91 0.00 99 1017.0
20260904070021 20 175 4.8 8.0 0.00 0.91 0.00 99 1016.8
20260904065020 20 223 1.6 4.8 0.00 0.91 0.00 99 1016.8
20260904064019 20 183 3.2 6.4 0.00 0.91 0.00 99 1016.7
20260904063019 20 240 3.2 8.0 0.00 0.91 0.00 99 1016.5
20260904062017 20 245 6.4 11.3 0.00 0.91 0.00 99 1016.1
20260904061016 20 255 3.2 6.4 0.00 0.91 0.00 99 1016.3
20260904060016 20 192 4.8 6.4 0.00 0.91 0.00 99 1016.5
20260904055020 20 222 6.4 11.3 0.00 0.91 0.00 99 1016.8
20260904054025 20 266 6.4 9.7 0.00 0.91 0.00 99 1017.0
20260904053030 20 232 4.8 11.3 0.00 0.91 0.00 99 1017.1
20260904052017 20 242 4.8 12.9 0.00 0.91 0.00 99 1016.7
20260904051022 20 207 6.4 9.7 0.00 0.91 0.00 99 1017.2
20260904050027 20 251 6.4 8.0 0.00 0.91 0.00 99 1017.1
20260904045052 20 199 3.2 6.4 0.00 0.91 0.00 99 1017.1
20260904044018 20 203 0.0 3.2 0.03 0.91 0.00 99 1017.2
20260904043023 20 181 3.2 6.4 0.03 0.91 0.00 99 1017.2
20260904042029 20 174 4.8 8.0 0.05 0.91 0.00 99 1017.6
20260904041015 20 180 0.0 3.2 0.05 0.91 0.00 99 1017.9
20260904040020 20 174 1.6 4.8 0.05 0.91 0.00 99 1018.1
20260904035045 20 176 1.6 4.8 0.08 0.91 0.91 99 1018.4
20260904034031 20 154 3.2 4.8 0.05 0.89 0.89 99 1018.6
20260904032534 21 135 4.8 6.4 0.05 0.86 0.86 99 1019.6